Terminal Aerodrome Forecast
Issued by NWS

Home | Current Version | Previous Version | Text Only | Print | Product List | Glossary On
Versions: 1 2 3 4 5 6 7 8 9 10 11 12 13 14 15
000
FTUS41 KPBZ 300500
TAFAGC
TAF
KAGC 300520Z 3006/3106 13003KT P6SM SCT250
     FM301500 19010KT P6SM SCT050
     FM310000 20005KT P6SM BKN100=

USA.gov is the U.S. government's official web portal to all federal, state and local government web resources and services.